Year,Month,Day,Hour,Minute,Value (Times are PST for windspeed in km/hr)
2012,09,10,00,00,9.60
2012,09,10,00,01,9.80
2012,09,10,00,02,8.90
2012,09,10,00,03,10.20
2012,09,10,00,04,6.60
2012,09,10,00,05,7.30
2012,09,10,00,06,6.90
2012,09,10,00,07,9.10
2012,09,10,00,08,5.90
2012,09,10,00,09,4.40
2012,09,10,00,10,10.30
2012,09,10,00,11,8.60
2012,09,10,00,12,9.60
2012,09,10,00,13,9.00
2012,09,10,00,14,6.90
2012,09,10,00,15,4.40
2012,09,10,00,16,6.80
2012,09,10,00,17,7.70
2012,09,10,00,18,9.80
2012,09,10,00,19,12.20
2012,09,10,00,20,9.00
2012,09,10,00,21,6.70
2012,09,10,00,22,9.10
2012,09,10,00,23,14.30
2012,09,10,00,24,7.60
2012,09,10,00,25,9.80
2012,09,10,00,26,12.70
2012,09,10,00,27,7.50
2012,09,10,00,28,13.80
2012,09,10,00,29,9.40
2012,09,10,00,30,7.80
2012,09,10,00,31,9.00
2012,09,10,00,32,9.90
2012,09,10,00,33,14.10
2012,09,10,00,34,12.70
2012,09,10,00,35,12.20
2012,09,10,00,36,10.70
2012,09,10,00,37,10.10
2012,09,10,00,38,13.60
2012,09,10,00,39,6.50
2012,09,10,00,40,5.70
2012,09,10,00,41,9.20
2012,09,10,00,42,11.80
2012,09,10,00,43,12.90
2012,09,10,00,44,7.00
2012,09,10,00,45,7.80
2012,09,10,00,46,13.10
2012,09,10,00,47,11.20
2012,09,10,00,48,13.30
2012,09,10,00,49,7.00
2012,09,10,00,50,6.90
2012,09,10,00,51,9.00
2012,09,10,00,52,7.20
2012,09,10,00,53,7.30
2012,09,10,00,54,6.90
2012,09,10,00,55,8.20
2012,09,10,00,56,11.10
2012,09,10,00,57,9.20
2012,09,10,00,58,10.10
2012,09,10,00,59,8.70
2012,09,10,01,00,10.10
2012,09,10,01,01,10.80
2012,09,10,01,02,8.30
2012,09,10,01,03,8.10
2012,09,10,01,04,6.30
2012,09,10,01,05,8.80
2012,09,10,01,06,12.50
2012,09,10,01,07,8.30
2012,09,10,01,08,10.70
2012,09,10,01,09,6.20
2012,09,10,01,10,9.50
2012,09,10,01,11,7.20
2012,09,10,01,12,7.40
2012,09,10,01,13,7.90
2012,09,10,01,14,4.40
2012,09,10,01,15,6.10
2012,09,10,01,16,6.30
2012,09,10,01,17,9.50
2012,09,10,01,18,6.30
2012,09,10,01,19,5.70
2012,09,10,01,20,8.90
2012,09,10,01,21,5.80
2012,09,10,01,22,4.50
2012,09,10,01,23,4.60
2012,09,10,01,24,9.30
2012,09,10,01,25,7.90
2012,09,10,01,26,9.60
2012,09,10,01,27,9.00
2012,09,10,01,28,7.10
2012,09,10,01,29,10.60
2012,09,10,01,30,15.00
2012,09,10,01,31,12.70
2012,09,10,01,32,8.50
2012,09,10,01,33,7.00
2012,09,10,01,34,10.40
2012,09,10,01,35,10.00
2012,09,10,01,36,7.90
2012,09,10,01,37,9.70
2012,09,10,01,38,9.70
2012,09,10,01,39,8.10
2012,09,10,01,40,6.20
2012,09,10,01,41,6.40
2012,09,10,01,42,9.00
2012,09,10,01,43,9.50
2012,09,10,01,44,9.40
2012,09,10,01,45,10.30
2012,09,10,01,46,6.20
2012,09,10,01,47,10.10
2012,09,10,01,48,7.30
2012,09,10,01,49,7.40
2012,09,10,01,50,11.50
2012,09,10,01,51,8.80
2012,09,10,01,52,13.20
2012,09,10,01,53,16.70
2012,09,10,01,54,8.60
2012,09,10,01,55,6.40
2012,09,10,01,56,7.00
2012,09,10,01,57,14.10
2012,09,10,01,58,13.10
2012,09,10,01,59,11.20
2012,09,10,02,00,8.30
2012,09,10,02,01,10.50
2012,09,10,02,02,6.80
2012,09,10,02,03,9.80
2012,09,10,02,04,10.90
2012,09,10,02,05,8.80
2012,09,10,02,06,8.10
2012,09,10,02,07,6.60
2012,09,10,02,08,7.00
2012,09,10,02,09,8.40
2012,09,10,02,10,10.90
2012,09,10,02,11,10.10
2012,09,10,02,12,10.40
2012,09,10,02,13,8.10
2012,09,10,02,14,5.90
2012,09,10,02,15,10.30
2012,09,10,02,16,9.20
2012,09,10,02,17,7.70
2012,09,10,02,18,5.10
2012,09,10,02,19,6.50
2012,09,10,02,20,8.70
2012,09,10,02,21,7.40
2012,09,10,02,22,7.20
2012,09,10,02,23,4.00
2012,09,10,02,24,4.90
2012,09,10,02,25,5.80
2012,09,10,02,26,5.20
2012,09,10,02,27,8.10
2012,09,10,02,28,11.30
2012,09,10,02,29,10.50
2012,09,10,02,30,7.80
2012,09,10,02,31,6.50
2012,09,10,02,32,7.80
2012,09,10,02,33,5.80
2012,09,10,02,34,10.60
2012,09,10,02,35,11.90
2012,09,10,02,36,7.80
2012,09,10,02,37,8.60
2012,09,10,02,38,9.60
2012,09,10,02,39,8.00
2012,09,10,02,40,11.00
2012,09,10,02,41,7.80
2012,09,10,02,42,10.00
2012,09,10,02,43,13.00
2012,09,10,02,44,9.50
2012,09,10,02,45,6.10
2012,09,10,02,46,8.20
2012,09,10,02,47,10.40
2012,09,10,02,48,8.60
2012,09,10,02,49,11.70
2012,09,10,02,50,8.40
2012,09,10,02,51,9.20
2012,09,10,02,52,11.10
2012,09,10,02,53,10.30
2012,09,10,02,54,11.80
2012,09,10,02,55,8.30
2012,09,10,02,56,12.40
2012,09,10,02,57,14.60
2012,09,10,02,58,8.90
2012,09,10,02,59,12.50
2012,09,10,03,00,8.50
2012,09,10,03,01,8.60
2012,09,10,03,02,7.40
2012,09,10,03,03,11.00
2012,09,10,03,04,8.10
2012,09,10,03,05,9.10
2012,09,10,03,06,9.70
2012,09,10,03,07,8.80
2012,09,10,03,08,8.30
2012,09,10,03,09,10.80
2012,09,10,03,10,11.30
2012,09,10,03,11,10.00
2012,09,10,03,12,5.60
2012,09,10,03,13,7.30
2012,09,10,03,14,6.30
2012,09,10,03,15,5.60
2012,09,10,03,16,6.10
2012,09,10,03,17,5.70
2012,09,10,03,18,10.30
2012,09,10,03,19,9.60
2012,09,10,03,20,12.00
2012,09,10,03,21,11.40
2012,09,10,03,22,8.80
2012,09,10,03,23,9.60
2012,09,10,03,24,8.60
2012,09,10,03,25,7.10
2012,09,10,03,26,5.10
2012,09,10,03,27,7.80
2012,09,10,03,28,9.00
2012,09,10,03,29,7.50
2012,09,10,03,30,7.20
2012,09,10,03,31,5.40
2012,09,10,03,32,9.30
2012,09,10,03,33,10.50
2012,09,10,03,34,7.00
2012,09,10,03,35,10.50
2012,09,10,03,36,9.90
2012,09,10,03,37,6.90
2012,09,10,03,38,8.00
2012,09,10,03,39,7.80
2012,09,10,03,40,9.20
2012,09,10,03,41,8.00
2012,09,10,03,42,7.70
2012,09,10,03,43,3.70
2012,09,10,03,44,3.40
2012,09,10,03,45,4.80
2012,09,10,03,46,6.90
2012,09,10,03,47,8.70
2012,09,10,03,48,4.20
2012,09,10,03,49,4.50
2012,09,10,03,50,3.40
2012,09,10,03,51,5.20
2012,09,10,03,52,4.60
2012,09,10,03,53,7.10
2012,09,10,03,54,5.10
2012,09,10,03,55,9.70
2012,09,10,03,56,6.40
2012,09,10,03,57,8.70
2012,09,10,03,58,6.40
2012,09,10,03,59,6.00
2012,09,10,04,00,9.30
2012,09,10,04,01,7.60
2012,09,10,04,02,5.90
2012,09,10,04,03,5.20
2012,09,10,04,04,6.30
2012,09,10,04,05,5.10
2012,09,10,04,06,8.70
2012,09,10,04,07,7.20
2012,09,10,04,08,5.40
2012,09,10,04,09,4.40
2012,09,10,04,10,5.40
2012,09,10,04,11,5.10
2012,09,10,04,12,5.40
2012,09,10,04,13,5.70
2012,09,10,04,14,4.20
2012,09,10,04,15,3.20
2012,09,10,04,16,3.60
2012,09,10,04,17,10.40
2012,09,10,04,18,9.00
2012,09,10,04,19,6.90
2012,09,10,04,20,5.10
2012,09,10,04,21,4.50
2012,09,10,04,22,2.20
2012,09,10,04,23,0.40
2012,09,10,04,24,3.60
2012,09,10,04,25,6.20
2012,09,10,04,26,5.80
2012,09,10,04,27,6.40
2012,09,10,04,28,6.50
2012,09,10,04,29,3.50
2012,09,10,04,30,2.80
2012,09,10,04,31,2.70
2012,09,10,04,32,4.60
2012,09,10,04,33,2.40
2012,09,10,04,34,2.00
2012,09,10,04,35,2.70
2012,09,10,04,36,0.60
2012,09,10,04,37,2.00
2012,09,10,04,38,3.50
2012,09,10,04,39,2.60
2012,09,10,04,40,0.20
2012,09,10,04,41,2.00
2012,09,10,04,42,1.40
2012,09,10,04,43,5.60
2012,09,10,04,44,3.60
2012,09,10,04,45,1.50
2012,09,10,04,46,3.40
2012,09,10,04,47,3.60
2012,09,10,04,48,2.80
2012,09,10,04,49,2.40
2012,09,10,04,50,2.90
2012,09,10,04,51,0.40
2012,09,10,04,52,0.00
2012,09,10,04,53,1.20
2012,09,10,04,54,3.80
2012,09,10,04,55,4.10
2012,09,10,04,56,2.50
2012,09,10,04,57,3.70
2012,09,10,04,58,2.90
2012,09,10,04,59,2.70
2012,09,10,05,00,4.50
2012,09,10,05,01,3.70
2012,09,10,05,02,3.80
2012,09,10,05,03,4.70
2012,09,10,05,04,2.80
2012,09,10,05,05,2.50
2012,09,10,05,06,1.00
2012,09,10,05,07,3.30
2012,09,10,05,08,1.80
2012,09,10,05,09,3.70
2012,09,10,05,10,4.50
2012,09,10,05,11,6.50
2012,09,10,05,12,4.90
2012,09,10,05,13,3.80
2012,09,10,05,14,6.30
2012,09,10,05,15,5.40
2012,09,10,05,16,5.00
2012,09,10,05,17,4.50
2012,09,10,05,18,3.60
2012,09,10,05,19,4.80
2012,09,10,05,20,4.40
2012,09,10,05,21,6.10
2012,09,10,05,22,6.20
2012,09,10,05,23,4.80
2012,09,10,05,24,3.60
2012,09,10,05,25,5.30
2012,09,10,05,26,3.90
2012,09,10,05,27,4.10
2012,09,10,05,28,6.80
2012,09,10,05,29,5.60
2012,09,10,05,30,7.80
2012,09,10,05,31,5.90
2012,09,10,05,32,4.90
2012,09,10,05,33,4.80
2012,09,10,05,34,5.40
2012,09,10,05,35,7.20
2012,09,10,05,36,8.70
2012,09,10,05,37,7.60
2012,09,10,05,38,5.50
2012,09,10,05,39,10.90
2012,09,10,05,40,6.50
2012,09,10,05,41,5.20
2012,09,10,05,42,6.00
2012,09,10,05,43,4.40
2012,09,10,05,44,5.80
2012,09,10,05,45,9.50
2012,09,10,05,46,5.60
2012,09,10,05,47,7.20
2012,09,10,05,48,3.80
2012,09,10,05,49,8.10
2012,09,10,05,50,7.40
2012,09,10,05,51,7.20
2012,09,10,05,52,7.80
2012,09,10,05,53,6.70
2012,09,10,05,54,9.00
2012,09,10,05,55,7.80
2012,09,10,05,56,7.70
2012,09,10,05,57,8.60
2012,09,10,05,58,6.80
2012,09,10,05,59,5.20
2012,09,10,06,00,7.70
2012,09,10,06,01,6.50
2012,09,10,06,02,7.70
2012,09,10,06,03,8.40
2012,09,10,06,04,9.10
2012,09,10,06,05,7.90
2012,09,10,06,06,10.50
2012,09,10,06,07,8.00
2012,09,10,06,08,8.70
2012,09,10,06,09,7.70
2012,09,10,06,10,5.60
2012,09,10,06,11,6.20
2012,09,10,06,12,6.90
2012,09,10,06,13,6.80
2012,09,10,06,14,7.20
2012,09,10,06,15,6.40
2012,09,10,06,16,7.10
2012,09,10,06,17,7.50
2012,09,10,06,18,6.20
2012,09,10,06,19,4.30
2012,09,10,06,20,6.90
2012,09,10,06,21,7.60
2012,09,10,06,22,7.60
2012,09,10,06,23,6.80
2012,09,10,06,24,6.90
2012,09,10,06,25,7.50
2012,09,10,06,26,8.00
2012,09,10,06,27,6.70
2012,09,10,06,28,4.80
2012,09,10,06,29,3.80
2012,09,10,06,30,6.50
2012,09,10,06,31,3.60
2012,09,10,06,32,6.10
2012,09,10,06,33,4.50
2012,09,10,06,34,6.90
2012,09,10,06,35,8.00
2012,09,10,06,36,5.40
2012,09,10,06,37,6.40
2012,09,10,06,38,7.80
2012,09,10,06,39,7.10
2012,09,10,06,40,8.30
2012,09,10,06,41,8.70
2012,09,10,06,42,7.20
2012,09,10,06,43,6.30
2012,09,10,06,44,7.30
2012,09,10,06,45,8.10
2012,09,10,06,46,7.10
2012,09,10,06,47,6.90
2012,09,10,06,48,6.80
2012,09,10,06,49,6.80
2012,09,10,06,50,6.80
2012,09,10,06,51,8.10
2012,09,10,06,52,9.30
2012,09,10,06,53,9.30
2012,09,10,06,54,6.40
2012,09,10,06,55,6.40
2012,09,10,06,56,6.00
2012,09,10,06,57,5.50
2012,09,10,06,58,5.30
2012,09,10,06,59,6.40
2012,09,10,07,00,4.70
2012,09,10,07,01,5.80
2012,09,10,07,02,5.10
2012,09,10,07,03,7.40
2012,09,10,07,04,7.90
2012,09,10,07,05,5.80
2012,09,10,07,06,5.30
2012,09,10,07,07,6.10
2012,09,10,07,08,8.40
2012,09,10,07,09,5.20
2012,09,10,07,10,4.70
2012,09,10,07,11,4.70
2012,09,10,07,12,5.30
2012,09,10,07,13,5.10
2012,09,10,07,14,7.10
2012,09,10,07,15,5.10
2012,09,10,07,16,8.40
2012,09,10,07,17,4.30
2012,09,10,07,18,1.80
2012,09,10,07,19,4.50
2012,09,10,07,20,5.10
2012,09,10,07,21,5.20
2012,09,10,07,22,3.10
2012,09,10,07,23,5.20
2012,09,10,07,24,6.30
2012,09,10,07,25,5.60
2012,09,10,07,26,3.60
2012,09,10,07,27,3.80
2012,09,10,07,28,2.70
2012,09,10,07,29,2.10
2012,09,10,07,30,4.30
2012,09,10,07,31,3.10
2012,09,10,07,32,4.00
2012,09,10,07,33,3.90
2012,09,10,07,34,3.70
2012,09,10,07,35,5.60
2012,09,10,07,36,6.60
2012,09,10,07,37,5.10
2012,09,10,07,38,4.50
2012,09,10,07,39,8.30
2012,09,10,07,40,6.60
2012,09,10,07,41,4.10
2012,09,10,07,42,6.30
2012,09,10,07,43,7.10
2012,09,10,07,44,5.50
2012,09,10,07,45,4.80
2012,09,10,07,46,6.40
2012,09,10,07,47,4.50
2012,09,10,07,48,5.00
2012,09,10,07,49,6.60
2012,09,10,07,50,5.00
2012,09,10,07,51,7.60
2012,09,10,07,52,7.00
2012,09,10,07,53,7.50
2012,09,10,07,54,7.30
2012,09,10,07,55,7.10
2012,09,10,07,56,7.30
2012,09,10,07,57,7.00
2012,09,10,07,58,8.40
2012,09,10,07,59,7.40
2012,09,10,08,00,6.40
2012,09,10,08,01,7.90
2012,09,10,08,02,5.60
2012,09,10,08,03,5.30
2012,09,10,08,04,5.20
2012,09,10,08,05,5.80
2012,09,10,08,06,6.10
2012,09,10,08,07,6.50
2012,09,10,08,08,5.30
2012,09,10,08,09,8.10
2012,09,10,08,10,2.90
2012,09,10,08,11,5.00
2012,09,10,08,12,7.00
2012,09,10,08,13,8.70
2012,09,10,08,14,7.80
2012,09,10,08,15,7.80
2012,09,10,08,16,5.00
2012,09,10,08,17,5.60
2012,09,10,08,18,4.20
2012,09,10,08,19,7.40
2012,09,10,08,20,4.00
2012,09,10,08,21,3.70
2012,09,10,08,22,5.00
2012,09,10,08,23,7.60
2012,09,10,08,24,8.70
2012,09,10,08,25,5.60
2012,09,10,08,26,5.60
2012,09,10,08,27,5.00
2012,09,10,08,28,7.10
2012,09,10,08,29,6.50
2012,09,10,08,30,8.20
2012,09,10,08,31,6.80
2012,09,10,08,32,8.10
2012,09,10,08,33,5.40
2012,09,10,08,34,7.10
2012,09,10,08,35,6.40
2012,09,10,08,36,4.90
2012,09,10,08,37,9.50
2012,09,10,08,38,7.50
2012,09,10,08,39,7.50
2012,09,10,08,40,6.00
2012,09,10,08,41,6.50
2012,09,10,08,42,5.00
2012,09,10,08,43,5.00
2012,09,10,08,44,9.50
2012,09,10,08,45,7.50
2012,09,10,08,46,6.80
2012,09,10,08,47,6.40
2012,09,10,08,48,4.10
2012,09,10,08,49,5.60
2012,09,10,08,50,9.90
2012,09,10,08,51,6.60
2012,09,10,08,52,6.40
2012,09,10,08,53,7.50
2012,09,10,08,54,5.20
2012,09,10,08,55,1.90
2012,09,10,08,56,5.20
2012,09,10,08,57,6.40
2012,09,10,08,58,7.20
2012,09,10,08,59,7.80
2012,09,10,09,00,6.40
2012,09,10,09,01,6.70
2012,09,10,09,02,5.80
2012,09,10,09,03,5.70
2012,09,10,09,04,6.20
2012,09,10,09,05,6.40
2012,09,10,09,06,6.30
2012,09,10,09,07,3.70
2012,09,10,09,08,6.20
2012,09,10,09,09,7.40
2012,09,10,09,10,4.30
2012,09,10,09,11,3.10
2012,09,10,09,12,5.40
2012,09,10,09,13,5.70
2012,09,10,09,14,9.60
2012,09,10,09,15,6.30
2012,09,10,09,16,3.90
2012,09,10,09,17,4.90
2012,09,10,09,18,5.20
2012,09,10,09,19,2.60
2012,09,10,09,20,3.40
2012,09,10,09,21,4.70
2012,09,10,09,22,7.40
2012,09,10,09,23,4.50
2012,09,10,09,24,4.30
2012,09,10,09,25,5.30
2012,09,10,09,26,5.00
2012,09,10,09,27,5.70
2012,09,10,09,28,6.70
2012,09,10,09,29,6.30
2012,09,10,09,30,5.10
2012,09,10,09,31,6.60
2012,09,10,09,32,5.60
2012,09,10,09,33,5.70
2012,09,10,09,34,5.80
2012,09,10,09,35,8.20
2012,09,10,09,36,8.50
2012,09,10,09,37,6.20
2012,09,10,09,38,6.70
2012,09,10,09,39,7.10
2012,09,10,09,40,6.50
2012,09,10,09,41,5.10
2012,09,10,09,42,6.10
2012,09,10,09,43,7.10
2012,09,10,09,44,7.90
2012,09,10,09,45,9.60
2012,09,10,09,46,5.90
2012,09,10,09,47,6.50
2012,09,10,09,48,6.10
2012,09,10,09,49,5.80
2012,09,10,09,50,8.50
2012,09,10,09,51,7.20
2012,09,10,09,52,5.60
2012,09,10,09,53,7.80
2012,09,10,09,54,7.10
2012,09,10,09,55,9.10
2012,09,10,09,56,9.10
2012,09,10,09,57,7.10
2012,09,10,09,58,11.50
2012,09,10,09,59,9.40
2012,09,10,10,00,6.70
2012,09,10,10,01,6.70
2012,09,10,10,02,8.50
2012,09,10,10,03,6.90
2012,09,10,10,04,9.40
2012,09,10,10,05,5.60
2012,09,10,10,06,7.00
2012,09,10,10,07,6.70
2012,09,10,10,08,6.50
2012,09,10,10,09,4.80
2012,09,10,10,10,4.80
2012,09,10,10,11,5.80
2012,09,10,10,12,4.10
2012,09,10,10,13,6.40
2012,09,10,10,14,5.90
2012,09,10,10,15,6.00
2012,09,10,10,16,4.80
2012,09,10,10,17,2.90
2012,09,10,10,18,4.40
2012,09,10,10,19,6.60
2012,09,10,10,20,8.20
2012,09,10,10,21,6.40
2012,09,10,10,22,7.40
2012,09,10,10,23,5.60
2012,09,10,10,24,4.60
2012,09,10,10,25,4.30
2012,09,10,10,26,5.10
2012,09,10,10,27,4.60
2012,09,10,10,28,5.00
2012,09,10,10,29,4.80
2012,09,10,10,30,4.20
2012,09,10,10,31,2.90
2012,09,10,10,32,2.00
2012,09,10,10,33,5.20
2012,09,10,10,34,6.20
2012,09,10,10,35,7.80
2012,09,10,10,36,5.00
2012,09,10,10,37,5.10
2012,09,10,10,38,5.90
2012,09,10,10,39,5.00
2012,09,10,10,40,5.90
2012,09,10,10,41,4.80
2012,09,10,10,42,5.00
2012,09,10,10,43,6.40
2012,09,10,10,44,5.30
2012,09,10,10,45,3.90
2012,09,10,10,46,5.80
2012,09,10,10,47,5.30
2012,09,10,10,48,6.40
2012,09,10,10,49,6.90
2012,09,10,10,50,4.50
2012,09,10,10,51,6.70
2012,09,10,10,52,6.40
2012,09,10,10,53,6.70
2012,09,10,10,54,5.30
2012,09,10,10,55,6.00
2012,09,10,10,56,7.10
2012,09,10,10,57,7.10
2012,09,10,10,58,6.00
2012,09,10,10,59,3.80
2012,09,10,11,00,5.20
2012,09,10,11,01,6.90
2012,09,10,11,02,7.90
2012,09,10,11,03,7.30
2012,09,10,11,04,7.90
2012,09,10,11,05,6.90
2012,09,10,11,06,5.10
2012,09,10,11,07,4.70
2012,09,10,11,08,4.50
2012,09,10,11,09,6.80
2012,09,10,11,10,6.60
2012,09,10,11,11,8.70
2012,09,10,11,12,6.50
2012,09,10,11,13,8.70
2012,09,10,11,14,4.80
2012,09,10,11,15,6.60
2012,09,10,11,16,6.10
2012,09,10,11,17,4.30
2012,09,10,11,18,7.10
2012,09,10,11,19,7.10
2012,09,10,11,20,7.30
2012,09,10,11,21,6.50
2012,09,10,11,22,4.90
2012,09,10,11,23,4.50
2012,09,10,11,24,4.20
2012,09,10,11,25,6.90
2012,09,10,11,26,5.60
2012,09,10,11,27,7.70
2012,09,10,11,28,7.20
2012,09,10,11,29,6.40
2012,09,10,11,30,5.00
2012,09,10,11,31,5.30
2012,09,10,11,32,4.80
2012,09,10,11,33,7.80
2012,09,10,11,34,8.00
2012,09,10,11,35,5.70
2012,09,10,11,36,6.10
2012,09,10,11,37,6.30
2012,09,10,11,38,8.60
2012,09,10,11,39,5.50
2012,09,10,11,40,5.70
2012,09,10,11,41,8.30
2012,09,10,11,42,5.90
2012,09,10,11,43,8.10
2012,09,10,11,44,6.60
2012,09,10,11,45,5.20
2012,09,10,11,46,5.90
2012,09,10,11,47,7.40
2012,09,10,11,48,5.30
2012,09,10,11,49,6.20
2012,09,10,11,50,7.80
2012,09,10,11,51,7.60
2012,09,10,11,52,8.00
2012,09,10,11,53,7.60
2012,09,10,11,54,7.40
2012,09,10,11,55,7.70
2012,09,10,11,56,5.40
2012,09,10,11,57,6.10
2012,09,10,11,58,5.10
2012,09,10,11,59,7.20
2012,09,10,12,00,5.80
2012,09,10,12,01,5.00
2012,09,10,12,02,7.20
2012,09,10,12,03,7.70
2012,09,10,12,04,6.40
2012,09,10,12,05,8.50
2012,09,10,12,06,6.00
2012,09,10,12,07,9.80
2012,09,10,12,08,9.20
2012,09,10,12,09,11.80
2012,09,10,12,10,12.10
2012,09,10,12,11,8.40
2012,09,10,12,12,9.00
2012,09,10,12,13,7.00
2012,09,10,12,14,5.90
2012,09,10,12,15,7.10
2012,09,10,12,16,8.80
2012,09,10,12,17,9.30
2012,09,10,12,18,7.20
2012,09,10,12,19,8.60
2012,09,10,12,20,8.70
2012,09,10,12,21,12.30
2012,09,10,12,22,8.60
2012,09,10,12,23,6.20
2012,09,10,12,24,6.60
2012,09,10,12,25,7.10
2012,09,10,12,26,6.10
2012,09,10,12,27,5.00
2012,09,10,12,28,5.50
2012,09,10,12,29,5.20
2012,09,10,12,30,3.90
2012,09,10,12,31,6.10
2012,09,10,12,32,7.70
2012,09,10,12,33,9.30
2012,09,10,12,34,6.60
2012,09,10,12,35,6.10
2012,09,10,12,36,8.90
2012,09,10,12,37,10.70
2012,09,10,12,38,7.30
2012,09,10,12,39,7.20
2012,09,10,12,40,7.20
2012,09,10,12,41,7.10
2012,09,10,12,42,6.50
2012,09,10,12,43,7.20
2012,09,10,12,44,6.80
2012,09,10,12,45,7.20
2012,09,10,12,46,5.20
2012,09,10,12,47,8.90
2012,09,10,12,48,8.30
2012,09,10,12,49,7.10
2012,09,10,12,50,4.80
2012,09,10,12,51,8.40
2012,09,10,12,52,5.00
2012,09,10,12,53,8.10
2012,09,10,12,54,10.00
2012,09,10,12,55,7.10
2012,09,10,12,56,7.00
2012,09,10,12,57,6.70
2012,09,10,12,58,8.60
2012,09,10,12,59,9.10
2012,09,10,13,00,8.40
2012,09,10,13,01,9.20
2012,09,10,13,02,10.10
2012,09,10,13,03,8.10
2012,09,10,13,04,6.30
2012,09,10,13,05,5.10
2012,09,10,13,06,7.00
2012,09,10,13,07,7.10
2012,09,10,13,08,6.80
2012,09,10,13,09,6.60
2012,09,10,13,10,7.20
2012,09,10,13,11,8.70
2012,09,10,13,12,8.30
2012,09,10,13,13,7.50
2012,09,10,13,14,5.40
2012,09,10,13,15,8.80
2012,09,10,13,16,7.20
2012,09,10,13,17,7.70
2012,09,10,13,18,7.60
2012,09,10,13,19,7.50
2012,09,10,13,20,7.10
2012,09,10,13,21,7.00
2012,09,10,13,22,7.90
2012,09,10,13,23,6.60
2012,09,10,13,24,7.20
2012,09,10,13,25,7.60
2012,09,10,13,26,4.50
2012,09,10,13,27,10.30
2012,09,10,13,28,7.50
2012,09,10,13,29,8.10
2012,09,10,13,30,7.80
2012,09,10,13,31,7.60
2012,09,10,13,32,8.70
2012,09,10,13,33,8.70
2012,09,10,13,34,11.10
2012,09,10,13,35,8.30
2012,09,10,13,36,7.00
2012,09,10,13,37,6.50
2012,09,10,13,38,8.20
2012,09,10,13,39,6.40
2012,09,10,13,40,8.80
2012,09,10,13,41,8.50
2012,09,10,13,42,7.90
2012,09,10,13,43,8.50
2012,09,10,13,44,9.80
2012,09,10,13,45,7.20
2012,09,10,13,46,8.10
2012,09,10,13,47,9.50
2012,09,10,13,48,7.70
2012,09,10,13,49,9.10
2012,09,10,13,50,9.30
2012,09,10,13,51,10.40
2012,09,10,13,52,7.20
2012,09,10,13,53,9.10
2012,09,10,13,54,7.60
2012,09,10,13,55,7.10
2012,09,10,13,56,5.80
2012,09,10,13,57,8.00
2012,09,10,13,58,6.80
2012,09,10,13,59,6.40
2012,09,10,14,00,8.90
2012,09,10,14,01,8.10
2012,09,10,14,02,9.60
2012,09,10,14,03,10.30
2012,09,10,14,04,8.60
2012,09,10,14,05,8.60
2012,09,10,14,06,9.50
2012,09,10,14,07,9.00
2012,09,10,14,08,5.50
2012,09,10,14,09,5.10
2012,09,10,14,10,4.50
2012,09,10,14,11,6.70
2012,09,10,14,12,8.10
2012,09,10,14,13,8.90
2012,09,10,14,14,5.90
2012,09,10,14,15,7.50
2012,09,10,14,16,8.50
2012,09,10,14,17,9.00
2012,09,10,14,18,8.30
2012,09,10,14,19,6.70
2012,09,10,14,20,8.50
2012,09,10,14,21,6.60
2012,09,10,14,22,6.10
2012,09,10,14,23,8.60
2012,09,10,14,24,10.20
2012,09,10,14,25,8.80
2012,09,10,14,26,10.30
2012,09,10,14,27,7.10
2012,09,10,14,28,6.80
2012,09,10,14,29,8.20
2012,09,10,14,30,7.30
2012,09,10,14,31,7.80
2012,09,10,14,32,6.40
2012,09,10,14,33,8.10
2012,09,10,14,34,10.90
2012,09,10,14,35,9.70
2012,09,10,14,36,7.20
2012,09,10,14,37,8.90
2012,09,10,14,38,6.50
2012,09,10,14,39,6.60
2012,09,10,14,40,9.50
2012,09,10,14,41,7.80
2012,09,10,14,42,5.00
2012,09,10,14,43,8.00
2012,09,10,14,44,10.30
2012,09,10,14,45,9.70
2012,09,10,14,46,10.80
2012,09,10,14,47,7.80
2012,09,10,14,48,10.00
2012,09,10,14,49,10.40
2012,09,10,14,50,11.00
2012,09,10,14,51,7.20
2012,09,10,14,52,11.40
2012,09,10,14,53,10.80
2012,09,10,14,54,9.20
2012,09,10,14,55,8.10
2012,09,10,14,56,6.30
2012,09,10,14,57,8.10
2012,09,10,14,58,6.40
2012,09,10,14,59,6.40
2012,09,10,15,00,6.30
2012,09,10,15,01,7.60
2012,09,10,15,02,8.20
2012,09,10,15,03,7.20
2012,09,10,15,04,5.90
2012,09,10,15,05,7.50
2012,09,10,15,06,5.30
2012,09,10,15,07,2.70
2012,09,10,15,08,5.70
2012,09,10,15,09,6.90
2012,09,10,15,10,7.80
2012,09,10,15,11,10.00
2012,09,10,15,12,8.90
2012,09,10,15,13,10.20
2012,09,10,15,14,8.70
2012,09,10,15,15,10.60
2012,09,10,15,16,8.80
2012,09,10,15,17,8.50
2012,09,10,15,18,6.10
2012,09,10,15,19,4.50
2012,09,10,15,20,7.60
2012,09,10,15,21,9.10
2012,09,10,15,22,8.70
2012,09,10,15,23,6.70
2012,09,10,15,24,5.20
2012,09,10,15,25,6.20
2012,09,10,15,26,5.30
2012,09,10,15,27,5.30
2012,09,10,15,28,3.60
2012,09,10,15,29,3.60
2012,09,10,15,30,5.30
2012,09,10,15,31,4.20
2012,09,10,15,32,0.90
2012,09,10,15,33,7.10
2012,09,10,15,34,8.20
2012,09,10,15,35,6.20
2012,09,10,15,36,4.30
2012,09,10,15,37,3.60
2012,09,10,15,38,4.80
2012,09,10,15,39,5.30
2012,09,10,15,40,6.80
2012,09,10,15,41,4.80
2012,09,10,15,42,8.70
2012,09,10,15,43,6.90
2012,09,10,15,44,5.30
2012,09,10,15,45,3.60
2012,09,10,15,46,6.70
2012,09,10,15,47,5.00
2012,09,10,15,48,5.00
2012,09,10,15,49,8.50
2012,09,10,15,50,6.20
2012,09,10,15,51,7.50
2012,09,10,15,52,7.60
2012,09,10,15,53,5.10
2012,09,10,15,54,4.70
2012,09,10,15,55,6.00
2012,09,10,15,56,6.00
2012,09,10,15,57,7.40
2012,09,10,15,58,7.60
2012,09,10,15,59,6.30
2012,09,10,16,00,3.70
2012,09,10,16,01,4.20
2012,09,10,16,02,6.10
2012,09,10,16,03,8.30
2012,09,10,16,04,6.70
2012,09,10,16,05,8.50
2012,09,10,16,06,4.30
2012,09,10,16,07,4.70
2012,09,10,16,08,6.60
2012,09,10,16,09,5.40
2012,09,10,16,10,7.50
2012,09,10,16,11,3.60
2012,09,10,16,12,3.90
2012,09,10,16,13,3.70
2012,09,10,16,14,5.20
2012,09,10,16,15,6.00
2012,09,10,16,16,4.40
2012,09,10,16,17,4.00
2012,09,10,16,18,4.00
2012,09,10,16,19,5.30
2012,09,10,16,20,5.30
2012,09,10,16,21,6.60
2012,09,10,16,22,6.80
2012,09,10,16,23,3.90
2012,09,10,16,24,4.90
2012,09,10,16,25,2.40
2012,09,10,16,26,4.10
2012,09,10,16,27,3.60
2012,09,10,16,28,6.10
2012,09,10,16,29,5.50
2012,09,10,16,30,6.30
2012,09,10,16,31,2.10
2012,09,10,16,32,4.50
2012,09,10,16,33,5.50
2012,09,10,16,34,3.60
2012,09,10,16,35,4.10
2012,09,10,16,36,4.40
2012,09,10,16,37,2.70
2012,09,10,16,38,5.20
2012,09,10,16,39,8.10
2012,09,10,16,40,6.70
2012,09,10,16,41,6.00
2012,09,10,16,42,7.20
2012,09,10,16,43,6.70
2012,09,10,16,44,4.30
2012,09,10,16,45,4.20
2012,09,10,16,46,6.20
2012,09,10,16,47,4.90
2012,09,10,16,48,3.80
2012,09,10,16,49,7.70
2012,09,10,16,50,6.20
2012,09,10,16,51,4.70
2012,09,10,16,52,4.00
2012,09,10,16,53,6.80
2012,09,10,16,54,4.10
2012,09,10,16,55,5.20
2012,09,10,16,56,6.80
2012,09,10,16,57,6.10
2012,09,10,16,58,7.90
2012,09,10,16,59,8.30
2012,09,10,17,00,8.70
2012,09,10,17,01,8.40
2012,09,10,17,02,7.00
2012,09,10,17,03,9.20
2012,09,10,17,04,6.10
2012,09,10,17,05,7.00
2012,09,10,17,06,6.00
2012,09,10,17,07,3.70
2012,09,10,17,08,5.10
2012,09,10,17,09,8.90
2012,09,10,17,10,6.40
2012,09,10,17,11,6.60
2012,09,10,17,12,9.00
2012,09,10,17,13,8.20
2012,09,10,17,14,6.40
2012,09,10,17,15,5.90
2012,09,10,17,16,7.80
2012,09,10,17,17,5.40
2012,09,10,17,18,8.90
2012,09,10,17,19,10.00
2012,09,10,17,20,9.60
2012,09,10,17,21,6.10
2012,09,10,17,22,5.40
2012,09,10,17,23,4.80
2012,09,10,17,24,8.30
2012,09,10,17,25,7.50
2012,09,10,17,26,4.50
2012,09,10,17,27,7.00
2012,09,10,17,28,7.90
2012,09,10,17,29,8.70
2012,09,10,17,30,9.50
2012,09,10,17,31,11.70
2012,09,10,17,32,10.00
2012,09,10,17,33,6.40
2012,09,10,17,34,7.30
2012,09,10,17,35,4.30
2012,09,10,17,36,7.00
2012,09,10,17,37,10.00
2012,09,10,17,38,7.80
2012,09,10,17,39,7.30
2012,09,10,17,40,8.30
2012,09,10,17,41,9.20
2012,09,10,17,42,8.10
2012,09,10,17,43,10.80
2012,09,10,17,44,8.50
2012,09,10,17,45,10.70
2012,09,10,17,46,9.00
2012,09,10,17,47,7.40
2012,09,10,17,48,7.90
2012,09,10,17,49,9.40
2012,09,10,17,50,12.90
2012,09,10,17,51,11.60
2012,09,10,17,52,9.20
2012,09,10,17,53,7.60
2012,09,10,17,54,9.60
2012,09,10,17,55,10.00
2012,09,10,17,56,7.70
2012,09,10,17,57,10.00
2012,09,10,17,58,6.40
2012,09,10,17,59,9.70
2012,09,10,18,00,7.40
2012,09,10,18,01,6.50